[[{"header":{"parameterUnit":"m.s-1","parameterCategory":1,"la1":30.2991,"la2":30.254,"lo1":-89.0895,"lo2":-89.0444,"dy":0.0017,"dx":0.0017,"nx":28,"ny":28,"refTime":"2026-01-29T03:00:00:Z","depth":0,"parameterNumber":2,"parameterNumberName":"U-component_of_WINDS"},"data":[0,0,0,0,0,0,0,0,0,0,0,0,0,0,0,0,0,0,0,0,0,0,0,0,0,0,0,0,0,0,0,0,0,0,0,0,0,0,0,0,0,0,0,0,0,0,0,0,0,0,0,0,0,0,0,0,0,0,3.7,3.7,0,3.6969,3.6969,3.6969,3.6887,3.6886,3.6884,3.6882,3.6853,3.6853,3.6854,0,0,0,0,0,0,0,0,0,0,0,0,0,3.699,3.6991,3.7,3.6999,3.6999,3.6969,3.6969,3.6969,3.6888,3.6885,3.6883,3.6881,3.6852,3.6853,3.6854,0,0,0,0,0,0,0,0,0,0,0,0,0,3.6981,3.6991,3.7,3.6955,3.6951,3.697,3.6969,3.6968,3.6888,3.6885,3.6883,3.688,3.6852,3.6853,3.6855,3.6915,0,0,3.6858,3.6859,0,0,0,0,0,0,0,0,3.6981,3.6981,3.6962,3.6958,3.6953,3.6929,3.6955,3.6951,3.6889,3.6912,3.6882,3.6879,3.688,3.6879,3.6879,3.6913,3.6912,3.6859,3.6859,3.686,3.686,0,0,0,0,0,0,0,3.6982,3.6982,3.6988,3.6962,3.6957,3.6937,3.6933,3.6954,3.6911,3.691,3.6904,3.6901,3.6878,3.6878,3.6878,3.6912,3.6858,3.686,3.686,3.6861,3.6995,3.6998,0,0,0,0,0,0,3.6989,3.6983,3.6989,3.6987,3.6961,3.694,3.6935,3.694,3.6911,3.6904,3.6903,3.6897,3.6877,3.6877,3.6877,3.6946,3.686,3.6861,3.6862,3.6992,3.6996,3.6999,0,0,0,0,0,0,3.6989,3.699,3.699,3.6983,3.6982,3.6943,3.6949,3.6941,3.6941,3.6906,3.6898,3.6912,3.6875,3.6875,3.6906,3.6944,3.6862,3.6863,3.6989,3.6993,3.6997,3.7085,0,0,0,0,0,0,3.6989,3.6991,3.7013,3.6984,3.6983,3.7019,3.6951,3.6942,3.6943,3.6935,3.6912,3.6905,3.6873,3.6905,3.6907,3.6944,3.6864,3.6986,3.6991,3.6996,3.7078,3.7091,3.7102,0,0,0,0,0,3.6989,3.7038,3.7014,3.7015,3.7009,3.7022,3.7021,3.6982,3.6947,3.6969,3.6946,3.6906,3.6939,3.6909,3.6911,3.6948,3.6983,3.699,3.6996,3.7073,3.7089,3.7102,0,0,0,0,0,0,3.7072,3.7034,3.7006,3.7048,3.7039,3.7008,3.7034,3.7,3.7001,3.6993,3.6946,3.6942,3.698,3.6967,3.6934,3.7006,3.6955,3.6962,3.7012,3.7027,3.7039,3.7041,3.6865,0,0,0,0,0,3.7095,3.7108,3.7074,3.7114,3.7111,3.7074,3.7078,3.7049,3.7038,3.7034,3.7014,3.7005,3.7013,3.702,3.7025,3.7076,3.707,3.7103,3.7116,3.7126,3.7132,3.7159,3.7174,3.702,3.702,3.7019,0,0,3.7143,3.7124,3.7135,3.7131,3.712,3.7135,3.7071,3.709,3.7101,3.7037,3.7065,3.705,3.7037,3.7079,3.7096,3.707,3.7174,3.7134,3.7142,3.7143,3.7167,3.7182,3.7195,3.7024,3.7023,3.7022,0,0,3.7238,3.7225,3.7257,3.7248,3.7233,3.7208,3.7216,3.7191,3.7178,3.7206,3.7158,3.7171,3.7187,3.718,3.7178,3.7273,3.7236,3.7276,3.7339,3.7366,3.7378,3.7389,3.7423,3.7435,3.7283,3.7283,3.7283,0,3.73,3.732,3.7278,3.73,3.73,3.7243,3.7275,3.7269,3.7257,3.7259,3.7229,3.7248,3.7235,3.7274,3.7298,3.7298,3.7307,3.7278,3.738,3.739,3.7399,3.7431,3.7444,3.7288,3.7287,3.7287,3.7286,0,3.7397,3.7412,3.744,3.7429,3.7433,3.746,3.7423,3.7432,3.7403,3.7382,3.7412,3.7395,3.7396,3.7404,3.7376,3.744,3.7424,3.7388,3.7335,3.7419,3.7449,3.7461,3.7295,3.7293,3.7292,3.7291,0,0,3.7542,3.7509,3.752,3.7515,3.7495,3.7506,3.7532,3.7533,3.7541,3.7536,3.7556,3.7571,3.7538,3.7537,3.7508,3.7532,3.7608,3.7492,3.7491,3.7515,3.7678,3.7706,3.772,3.7584,3.7586,3.7588,3.768,0,3.7632,3.7672,3.7636,3.7684,3.7698,3.7645,3.7667,3.7658,3.7639,3.7649,3.7629,3.764,3.7595,3.7594,3.7615,3.7595,3.7641,3.7587,3.7604,3.7605,3.7608,3.7735,3.7764,3.7851,3.7691,3.7693,3.7694,0,3.7741,3.774,3.779,3.7768,3.7772,3.7793,3.7792,3.7802,3.7791,3.7776,3.7775,3.774,3.7764,3.7714,3.7747,3.7712,3.7717,3.7708,3.7711,3.771,3.7654,3.7739,3.7878,3.7891,3.7711,3.771,3.7709,0,3.7843,3.7854,3.7885,3.7883,3.7857,3.7873,3.7864,3.785,3.7853,3.7853,3.7855,3.7858,3.7859,3.7863,3.783,3.7796,3.7869,3.7815,3.7857,3.7858,3.7874,3.7873,3.8016,3.7878,3.7878,3.7877,3.7877,0,3.7946,3.7979,3.793,3.795,3.7985,3.7944,3.798,3.7965,3.7954,3.797,3.7924,3.794,3.7896,3.7909,3.7883,3.7916,3.7917,3.7906,3.7898,3.7909,3.7911,3.7911,3.7905,3.7881,3.788,3.7879,3.7879,0,3.8065,3.8034,3.8064,3.8038,3.8033,3.806,3.8038,3.8055,3.8034,3.8055,3.8058,3.8025,3.8037,3.8005,3.8012,3.7995,3.8041,3.8025,3.8045,3.804,3.8084,3.808,3.8231,3.8249,3.81,3.8102,3.8103,0,3.8133,3.8157,3.8134,3.8141,3.8134,3.8146,3.815,3.8111,3.8116,3.8106,3.8125,3.8133,3.8138,3.816,3.8137,3.8142,3.8125,3.8178,3.8126,3.8137,3.8126,3.8125,3.8128,3.8189,3.819,3.8192,3.8193,0,3.8258,3.8241,3.8248,3.825,3.8255,3.8255,3.8251,3.826,3.8218,3.8227,3.8239,3.8242,3.825,3.8259,3.826,3.825,3.8216,3.821,3.822,3.8231,3.8242,3.8237,3.8074,3.8206,3.8205,3.8204,3.8203,3.8203,3.8353,3.8372,3.8359,3.8368,3.8361,3.8359,3.8375,3.8356,3.8364,3.8367,3.8344,3.8361,3.835,3.8347,3.8342,3.8355,3.8331,3.8346,3.835,3.8354,3.8361,3.8241,3.8355,3.8355,3.8355,3.8354,3.8354,0,3.8475,3.8464,3.8473,3.847,3.8478,3.8444,3.8439,3.8447,3.8463,3.8456,3.8461,3.8475,3.8484,3.8462,3.8468,3.8483,3.8467,3.8486,3.8484,3.8483,3.8382,3.8373,3.8498,3.8498,3.8498,3.8498,3.8498,3.8498,3.854,3.857,3.8553,3.858,3.8569,3.8585,3.8585,3.8583,3.8577,3.8595,3.8602,3.8588,3.8575,3.858,3.8587,3.8581,3.8585,3.8609,3.8597,3.8504,3.849,3.8476,3.8467,3.8611,3.8611,3.8697,3.8697,3.8698]},{"header":{"parameterUnit":"m.s-1","parameterCategory":1,"la1":30.2991,"la2":30.254,"lo1":-89.0895,"lo2":-89.0444,"dy":0.0017,"dx":0.0017,"nx":28,"ny":28,"refTime":"2026-01-29T03:00:00:Z","depth":0,"parameterNumber":3,"parameterNumberName":"V-component_of_WINDS"},"data":[0,0,0,0,0,0,0,0,0,0,0,0,0,0,0,0,0,0,0,0,0,0,0,0,0,0,0,0,0,0,0,0,0,0,0,0,0,0,0,0,0,0,0,0,0,0,0,0,0,0,0,0,0,0,0,0,0,0,-6.3513,-6.3515,0,-6.3627,-6.3628,-6.3629,-6.355,-6.3547,-6.3543,-6.354,-6.3653,-6.3659,-6.3665,0,0,0,0,0,0,0,0,0,0,0,0,0,-6.3227,-6.3232,-6.3513,-6.3515,-6.3516,-6.3627,-6.3628,-6.363,-6.3551,-6.3547,-6.3542,-6.3538,-6.365,-6.3658,-6.3665,0,0,0,0,0,0,0,0,0,0,0,0,0,-6.3347,-6.3234,-6.3513,-6.349,-6.3489,-6.3626,-6.3628,-6.363,-6.3552,-6.3547,-6.3541,-6.3536,-6.3648,-6.3657,-6.3666,-6.3831,0,0,-6.3695,-6.3699,0,0,0,0,0,0,0,0,-6.334,-6.3357,-6.3492,-6.3492,-6.3491,-6.3569,-6.3568,-6.3697,-6.3553,-6.3528,-6.354,-6.3534,-6.3629,-6.3639,-6.3672,-6.3836,-6.3841,-6.3696,-6.3702,-6.3706,-6.3709,0,0,0,0,0,0,0,-6.3332,-6.3352,-6.3558,-6.3494,-6.3494,-6.3474,-6.3485,-6.3592,-6.3607,-6.353,-6.3524,-6.3539,-6.3627,-6.3663,-6.3674,-6.3843,-6.3696,-6.3704,-6.371,-6.3714,-6.4148,-6.4154,0,0,0,0,0,0,-6.3326,-6.3345,-6.3554,-6.3561,-6.3401,-6.3483,-6.3496,-6.3549,-6.3605,-6.3609,-6.3543,-6.3535,-6.365,-6.3663,-6.3678,-6.3875,-6.3706,-6.3715,-6.372,-6.4142,-6.4149,-6.4156,0,0,0,0,0,0,-6.332,-6.3345,-6.355,-6.3452,-6.3477,-6.3494,-6.3555,-6.3554,-6.359,-6.3616,-6.3618,-6.3578,-6.3646,-6.3665,-6.3794,-6.3878,-6.3719,-6.3728,-6.4135,-6.4144,-6.4153,-6.427,0,0,0,0,0,0,-6.3312,-6.3344,-6.3407,-6.3454,-6.3482,-6.3665,-6.356,-6.356,-6.3607,-6.3597,-6.3648,-6.3652,-6.3643,-6.378,-6.3803,-6.3888,-6.3735,-6.4128,-6.4139,-6.415,-6.4259,-6.4282,-6.4302,0,0,0,0,0,-6.3302,-6.3434,-6.341,-6.3436,-6.3562,-6.367,-6.3686,-6.3675,-6.3614,-6.3678,-6.3694,-6.365,-6.3865,-6.3794,-6.382,-6.3908,-6.4123,-6.4136,-6.4149,-6.4249,-6.4278,-6.4301,0,0,0,0,0,0,-6.3395,-6.344,-6.3414,-6.3566,-6.3615,-6.3657,-6.3736,-6.3705,-6.3771,-6.3759,-6.3741,-6.3754,-6.389,-6.3911,-6.3832,-6.4071,-6.3984,-6.4003,-6.4052,-6.4079,-6.41,-6.4092,-6.3743,0,0,0,0,0,-6.3433,-6.3518,-6.3553,-6.3683,-6.3709,-6.3719,-6.3766,-6.3753,-6.3803,-6.3823,-6.3849,-6.3898,-6.3976,-6.4028,-6.4102,-6.4262,-6.4272,-6.4335,-6.4356,-6.4374,-6.4391,-6.4478,-6.4506,-6.4199,-6.4199,-6.4199,0,0,-6.3512,-6.3548,-6.3602,-6.3703,-6.3739,-6.3828,-6.3737,-6.3833,-6.3899,-6.3837,-6.3962,-6.3982,-6.4036,-6.4182,-6.4247,-6.4204,-6.4478,-6.4391,-6.4405,-6.4412,-6.4494,-6.4523,-6.4549,-6.4208,-6.4206,-6.4205,0,0,-6.3703,-6.3738,-6.3851,-6.389,-6.3948,-6.3953,-6.3981,-6.4028,-6.404,-6.4165,-6.4121,-6.4197,-6.4333,-6.4374,-6.4412,-6.4619,-6.4581,-6.4644,-6.4755,-6.484,-6.4865,-6.4886,-6.4961,-6.4988,-6.466,-6.466,-6.466,0,-6.3794,-6.3926,-6.3913,-6.4014,-6.406,-6.401,-6.4124,-6.4162,-6.424,-6.4273,-6.4224,-6.4394,-6.4427,-6.4582,-6.4633,-6.4665,-6.4695,-6.4638,-6.4862,-6.4884,-6.4903,-6.4975,-6.5003,-6.4668,-6.4667,-6.4666,-6.4665,0,-6.4036,-6.4129,-6.4213,-6.4292,-6.4347,-6.4454,-6.4457,-6.4514,-6.4497,-6.4508,-6.4636,-6.4673,-6.4754,-6.479,-6.4773,-6.4943,-6.4915,-6.4865,-6.4777,-6.494,-6.5007,-6.5034,-6.4678,-6.4675,-6.4673,-6.4671,0,0,-6.4288,-6.4359,-6.439,-6.4426,-6.4486,-6.4557,-6.4662,-6.4742,-6.4792,-6.4848,-6.4936,-6.5052,-6.5007,-6.5051,-6.5038,-6.5113,-6.5276,-6.5054,-6.5054,-6.5094,-6.5466,-6.5504,-6.5536,-6.5251,-6.5256,-6.526,-6.5462,0,-6.4482,-6.4667,-6.4658,-6.4831,-6.4916,-6.4871,-6.4962,-6.5009,-6.5022,-6.5096,-6.5109,-6.5193,-6.5126,-6.5152,-6.5224,-6.5241,-6.5351,-6.5226,-6.5332,-6.5336,-6.5322,-6.5571,-6.5611,-6.58,-6.5488,-6.5492,-6.5496,0,-6.4733,-6.48,-6.4981,-6.503,-6.5066,-6.5148,-6.5222,-6.5294,-6.5345,-6.535,-6.54,-6.5376,-6.5481,-6.5391,-6.5537,-6.5453,-6.5495,-6.551,-6.5517,-6.5527,-6.5426,-6.5588,-6.5859,-6.5888,-6.5536,-6.5533,-6.553,0,-6.49,-6.5034,-6.5161,-6.5192,-6.5252,-6.5312,-6.5339,-6.5386,-6.5435,-6.55,-6.5532,-6.5607,-6.5648,-6.5707,-6.5704,-6.5638,-6.5852,-6.5761,-6.5858,-6.5859,-6.5906,-6.5903,-6.6188,-6.5932,-6.5932,-6.5931,-6.5931,0,-6.5118,-6.5231,-6.5236,-6.5314,-6.544,-6.5429,-6.5553,-6.5574,-6.5617,-6.5697,-6.5662,-6.5738,-6.5729,-6.5805,-6.5803,-6.5925,-6.5943,-6.5949,-6.5948,-6.5953,-6.5953,-6.5982,-6.5969,-6.5939,-6.5937,-6.5936,-6.5934,0,-6.5325,-6.5333,-6.5468,-6.5515,-6.5529,-6.562,-6.5659,-6.5732,-6.5743,-6.5846,-6.5869,-6.5885,-6.5974,-6.5976,-6.6077,-6.6076,-6.6225,-6.6207,-6.6208,-6.6205,-6.6302,-6.6294,-6.6617,-6.6659,-6.6375,-6.6378,-6.638,0,-6.5464,-6.5551,-6.5607,-6.566,-6.5691,-6.5776,-6.5827,-6.5819,-6.5874,-6.594,-6.6006,-6.6092,-6.616,-6.6303,-6.6323,-6.6401,-6.6386,-6.6494,-6.6397,-6.6401,-6.6389,-6.6384,-6.6393,-6.6513,-6.6516,-6.6519,-6.6521,0,-6.5711,-6.5711,-6.5787,-6.5865,-6.5927,-6.5988,-6.6043,-6.6088,-6.6087,-6.615,-6.6241,-6.6295,-6.6399,-6.6484,-6.656,-6.6586,-6.6555,-6.6551,-6.6578,-6.6585,-6.6582,-6.6586,-6.626,-6.6544,-6.6541,-6.654,-6.6538,-6.6538,-6.5889,-6.5964,-6.6016,-6.6102,-6.6144,-6.6198,-6.627,-6.629,-6.6366,-6.6452,-6.6442,-6.6544,-6.6594,-6.6693,-6.6726,-6.6805,-6.6767,-6.6806,-6.6816,-6.6826,-6.6837,-6.6569,-6.6818,-6.6818,-6.6817,-6.6816,-6.6816,0,-6.6135,-6.6166,-6.6245,-6.6326,-6.6394,-6.6359,-6.6419,-6.6478,-6.6568,-6.6618,-6.6687,-6.6792,-6.6875,-6.6903,-6.6983,-6.7041,-6.7028,-6.7062,-6.7058,-6.7065,-6.6865,-6.6835,-6.7072,-6.7072,-6.7072,-6.7071,-6.7071,-6.7071,-6.6271,-6.6397,-6.6403,-6.6549,-6.658,-6.668,-6.6718,-6.6768,-6.6808,-6.6928,-6.6997,-6.7015,-6.7056,-6.714,-6.7214,-6.722,-6.7252,-6.7293,-6.7292,-6.7105,-6.7079,-6.7055,-6.7026,-6.7299,-6.73,-6.7486,-6.7488,-6.7489]}]]